KOREASAT 116

Last updated on Oct. 31, 2020, 5:53 a.m. UTC

1 45920U 20048A   20304.84391424 -.00000357  00000-0  00000+0 0  9993
2 45920   0.0423 280.0105 0001110 284.7565 254.8695  1.00275860  1040
UTC
Height (km)
Latitude
Longitude
Inclination
Orbital Period
UTC large
Height (km)
Speed (km/s)
/
Latitude / Longitude
Inclination (degrees)
Orbital Period (minutes)
Azimuth
Elevation
Range (km)
Doppler Factor
iOS Compass Heading
iOS Angle

Next 30 passes for location: Hong Kong

Rise time Rise Azimuth (degrees) Set time Set Azimuth (degrees) Duration Max altitude (degrees)

No matching passes for this satellites